This demonstration page uses our WeatherBlox Daily Observations layout. Learn more.

Left ArrowRight Arrow

30.00354, -91.81873

Hourly Observations for September 12, 2022

Temp ( °F °C ) Dew Point ( °F °C ) Humidity (%) Winds ( mph kmh ) Pressure ( in mb ) Visibility ( mi km ) Precip ( " mm )
12:53 am 00:53 Clear 73 22.8 70 21.1 90 90 Calm 30.01 1016 10 16 0.00 0.00
1:53 am 01:53 Clear 72 22.2 70 21.1 93 93 Calm 30.00 1016 10 16 0.00 0.00
2:53 am 02:53 Clear 73 22.8 70 21.1 90 90 WNW 5 7 29.98 1015 10 16 0.00 0.00
3:53 am 03:53 Clear 72 22.2 69 20.6 91 91 Calm 29.98 1015 10 16 0.00 0.00
4:53 am 04:53 Clear 73 22.8 70 21.1 90 90 Calm 29.98 1015 10 16 0.00 0.00
5:53 am 05:53 Clear 72 22.2 69 20.6 91 91 NNW 7 11 29.98 1015 10 16 0.00 0.00
6:53 am 06:53 Sunny 72 22.2 69 20.6 91 91 N 6 9 29.98 1015 10 16 0.00 0.00
7:53 am 07:53 Sunny 74 23.3 71 21.7 91 91 N 6 9 29.99 1016 9 14 0.00 0.00
8:53 am 08:53 Sunny 76 24.4 71 21.7 85 85 N 10 17 30.00 1016 10 16 0.00 0.00
9:53 am 09:53 Sunny 79 26.1 71 21.7 77 77 NNE 7 11 30.01 1016 10 16 0.00 0.00
10:53 am 10:53 Partly Cloudy 82 27.8 72 22.2 72 72 NNW 7 11 30.01 1016 10 16 0.00 0.00
11:53 am 11:53 Partly Cloudy 85 29.4 72 22.2 65 65 undefined N/A 30.01 1016 10 16 0.00 0.00
12:06 pm 12:06 Mostly Cloudy 85 29.4 72 22.2 65 65 NNW 6 9 30.01 1016 10 16 0.00 0.00
12:19 pm 12:19 Partly Cloudy 87 30.6 72 22.2 61 61 VRB 5 7 30.00 1016 10 16 0.00 0.00
12:53 pm 12:53 Partly Cloudy 87 30.6 72 22.2 61 61 VRB 5 7 29.99 1016 10 16 0.00 0.00
1:53 pm 13:53 Partly Cloudy 89 31.7 70 21.1 54 54 N 10 17 29.96 1015 10 16 0.00 0.00
2:53 pm 14:53 Mostly Cloudy 90 32.2 69 20.6 50 50 N 7 11 29.94 1014 10 16 0.00 0.00
3:53 pm 15:53 Mostly Cloudy 90 32.2 68 20 49 49 N 7 11 29.91 1013 10 16 0.00 0.00
4:53 pm 16:53 Sunny 88 31.1 67 19.4 50 50 N 9 15 29.90 1013 10 16 0.00 0.00
5:53 pm 17:53 Sunny 86 30 66 18.9 51 51 N 9 15 29.90 1013 10 16 0.00 0.00
6:53 pm 18:53 Sunny 79 26.1 65 18.3 62 62 NNW 8 13 29.90 1013 10 16 0.00 0.00
7:53 pm 19:53 Clear 76 24.4 65 18.3 69 69 N 6 9 29.91 1013 10 16 0.00 0.00
8:53 pm 20:53 Clear 73 22.8 67 19.4 81 81 NNW 6 9 29.93 1013 10 16 0.00 0.00
9:53 pm 21:53 Clear 72 22.2 64 17.8 76 76 N 7 11 29.93 1014 10 16 0.00 0.00
10:53 pm 22:53 Clear 71 21.7 64 17.8 79 79 N 6 9 29.94 1014 10 16 0.00 0.00
11:53 pm 23:53 Clear 71 21.7 64 17.8 79 79 N 3 6 29.95 1014 10 16 0.00 0.00

Powered by AerisWeather